FSM40X LHBP-LFPO

Flight info

Callsign FSM40X
Flight time 2h 1m
Altitude 36000
Route GILEP DCT ZOLKU DCT ABETI DCT BARUG DCT SBG DCT TRAUN DCT RAVED Y112 HOC/N0449F370 DCT MOROK/N0445F350 DCT PENDU DCT JAVVU DCT DJL
Aircraft A320/M-SDE3FGHIRWY/LB1

Departure

Time 2026-05-05 07:31
Airport Budapest Liszt Ferenc International Airport (LHBP)

Arrival

Time 2026-05-05 09:32
Airport Paris-Orly Airport (LFPO)
Time Latitude Longitude Altitude Speed Heading
2026-05-05 06:51 47.43474 19.26526 458 ft 0 kts 222°
2026-05-05 07:18 47.43478 19.26531 457 ft 2 kts 222°
2026-05-05 07:18 47.43491 19.26548 457 ft 2 kts 222°
2026-05-05 07:19 47.43504 19.26565 454 ft 2 kts 243°
2026-05-05 07:19 47.43506 19.26589 456 ft 2 kts 314°
2026-05-05 07:19 47.43505 19.26590 456 ft 0 kts 314°
2026-05-05 07:23 47.43507 19.26587 455 ft 3 kts 314°
2026-05-05 07:24 47.43523 19.26564 456 ft 3 kts 317°
2026-05-05 07:24 47.43543 19.26540 458 ft 3 kts 320°
2026-05-05 07:24 47.43583 19.26484 458 ft 13 kts 312°
2026-05-05 07:24 47.43628 19.26411 457 ft 8 kts 312°
2026-05-05 07:25 47.43666 19.26360 457 ft 7 kts 336°
2026-05-05 07:25 47.43727 19.26383 456 ft 10 kts 37°
2026-05-05 07:25 47.43785 19.26416 458 ft 12 kts 341°
2026-05-05 07:25 47.43849 19.26320 458 ft 13 kts 312°
2026-05-05 07:26 47.43904 19.26231 458 ft 11 kts 313°
2026-05-05 07:26 47.43952 19.26153 458 ft 10 kts 311°
2026-05-05 07:26 47.44004 19.26068 457 ft 15 kts 312°
2026-05-05 07:26 47.44070 19.25958 458 ft 13 kts 313°
2026-05-05 07:27 47.44134 19.25858 457 ft 15 kts 312°
2026-05-05 07:27 47.44208 19.25737 458 ft 16 kts 312°
2026-05-05 07:27 47.44278 19.25628 458 ft 14 kts 314°
2026-05-05 07:27 47.44378 19.25553 459 ft 19 kts 357°
2026-05-05 07:28 47.44450 19.25590 462 ft 0 kts 32°
2026-05-05 07:28 47.44462 19.25603 463 ft 8 kts 37°
2026-05-05 07:29 47.44485 19.25636 467 ft 4 kts 53°
2026-05-05 07:29 47.44512 19.25731 471 ft 12 kts 74°
2026-05-05 07:29 47.44495 19.25840 476 ft 11 kts 125°
2026-05-05 07:29 47.44441 19.25923 471 ft 12 kts 133°
2026-05-05 07:30 47.44377 19.26028 474 ft 17 kts 132°
2026-05-05 07:30 47.43649 19.27200 472 ft 138 kts 131°
2026-05-05 07:30 47.42891 19.28400 637 ft 170 kts 136°
2026-05-05 07:31 47.42084 19.29717 1146 ft 178 kts 134°
2026-05-05 07:31 47.41264 19.31118 1793 ft 182 kts 133°
2026-05-05 07:31 47.40466 19.32623 2414 ft 194 kts 132°
2026-05-05 07:31 47.39885 19.33711 2707 ft 205 kts 133°
2026-05-05 07:32 47.38937 19.35446 3055 ft 230 kts 133°
2026-05-05 07:32 47.37910 19.37308 3532 ft 250 kts 133°
2026-05-05 07:32 47.36782 19.39316 4338 ft 257 kts 133°
2026-05-05 07:32 47.35633 19.41363 5225 ft 261 kts 133°
2026-05-05 07:33 47.34475 19.43455 6073 ft 266 kts 133°
2026-05-05 07:33 47.33301 19.45616 6851 ft 273 kts 131°
2026-05-05 07:33 47.32094 19.47808 7659 ft 278 kts 132°
2026-05-05 07:33 47.30860 19.50018 8531 ft 280 kts 132°
2026-05-05 07:34 47.29517 19.52083 9410 ft 279 kts 146°
2026-05-05 07:34 47.27782 19.53307 10239 ft 278 kts 168°
2026-05-05 07:34 47.25846 19.53430 10813 ft 289 kts 190°
2026-05-05 07:34 47.23935 19.52247 11053 ft 313 kts 216°
2026-05-05 07:35 47.22757 19.50369 11314 ft 330 kts 237°
2026-05-05 07:35 47.22404 19.49356 11497 ft 335 kts 246°
2026-05-05 07:35 47.22039 19.45934 12123 ft 349 kts 268°
2026-05-05 07:36 47.22569 19.42292 11877 ft 386 kts 283°
2026-05-05 07:36 47.23473 19.38465 12033 ft 403 kts 283°
2026-05-05 07:36 47.24328 19.34478 12153 ft 406 kts 281°
2026-05-05 07:36 47.25069 19.30520 12216 ft 406 kts 278°
2026-05-05 07:37 47.25698 19.26443 12328 ft 422 kts 276°
2026-05-05 07:37 47.26232 19.22230 12429 ft 408 kts 275°
2026-05-05 07:37 47.26718 19.18236 12454 ft 385 kts 275°
2026-05-05 07:37 47.27258 19.14477 12479 ft 365 kts 277°
2026-05-05 07:38 47.27871 19.10955 12501 ft 346 kts 279°
2026-05-05 07:38 47.28559 19.07600 12536 ft 349 kts 281°
2026-05-05 07:38 47.29361 19.04095 12663 ft 372 kts 283°
2026-05-05 07:38 47.30285 19.00426 12841 ft 391 kts 285°
2026-05-05 07:39 47.31339 18.96613 13058 ft 401 kts 287°
2026-05-05 07:39 47.32482 18.92845 13295 ft 404 kts 289°
2026-05-05 07:39 47.33719 18.89108 13555 ft 407 kts 291°
2026-05-05 07:39 47.35049 18.85416 13833 ft 409 kts 293°
2026-05-05 07:40 47.36470 18.81768 14108 ft 411 kts 295°
2026-05-05 07:40 47.37977 18.78170 14416 ft 413 kts 296°
2026-05-05 07:40 47.39415 18.74511 14749 ft 411 kts 291°
2026-05-05 07:40 47.40501 18.70623 15085 ft 409 kts 282°
2026-05-05 07:41 47.41181 18.66558 15403 ft 408 kts 274°
2026-05-05 07:41 47.41445 18.62400 15706 ft 407 kts 266°
2026-05-05 07:41 47.41652 18.58205 15987 ft 412 kts 271°
2026-05-05 07:41 47.42085 18.54009 16303 ft 415 kts 275°
2026-05-05 07:42 47.42742 18.49844 16669 ft 419 kts 279°
2026-05-05 07:42 47.43624 18.45724 17066 ft 422 kts 284°
2026-05-05 07:42 47.44709 18.41734 17497 ft 426 kts 288°
2026-05-05 07:42 47.46000 18.37769 17990 ft 428 kts 289°
2026-05-05 07:43 47.47040 18.33664 18459 ft 426 kts 280°
2026-05-05 07:43 47.47353 18.31753 18632 ft 425 kts 276°
2026-05-05 07:44 47.47504 18.30464 18743 ft 424 kts 272°
2026-05-05 07:44 47.47751 18.26117 19103 ft 425 kts 266°
2026-05-05 07:44 47.47728 18.21758 19475 ft 425 kts 262°
2026-05-05 07:44 47.47630 18.17365 19630 ft 430 kts 264°
2026-05-05 07:45 47.47734 18.12960 19415 ft 429 kts 269°
2026-05-05 07:45 47.48089 18.08575 19250 ft 429 kts 277°
2026-05-05 07:45 47.48863 18.04318 19498 ft 431 kts 284°
2026-05-05 07:45 47.49769 18.00081 19838 ft 433 kts 284°
2026-05-05 07:46 47.50689 17.95835 20171 ft 434 kts 285°
2026-05-05 07:46 47.51598 17.91569 20522 ft 436 kts 284°
2026-05-05 07:46 47.52508 17.87283 20874 ft 438 kts 285°
2026-05-05 07:46 47.53404 17.82990 21512 ft 430 kts 285°
2026-05-05 07:47 47.54256 17.78850 22779 ft 412 kts 284°
2026-05-05 07:47 47.55092 17.74830 23651 ft 407 kts 285°
2026-05-05 07:47 47.55904 17.70826 24164 ft 406 kts 281°
2026-05-05 07:47 47.56676 17.66820 24681 ft 404 kts 279°
2026-05-05 07:48 47.57368 17.62869 25188 ft 401 kts 278°
2026-05-05 07:48 47.58001 17.58836 25746 ft 399 kts 276°
2026-05-05 07:48 47.58557 17.54831 26299 ft 396 kts 275°
2026-05-05 07:48 47.59037 17.50835 26867 ft 393 kts 273°
2026-05-05 07:49 47.59441 17.46855 27458 ft 389 kts 272°
2026-05-05 07:49 47.59766 17.42900 28072 ft 385 kts 275°
2026-05-05 07:49 47.60247 17.38971 28333 ft 395 kts 284°
2026-05-05 07:49 47.61204 17.35099 28468 ft 405 kts 287°
2026-05-05 07:50 47.62321 17.31219 28576 ft 413 kts 288°
2026-05-05 07:50 47.63507 17.27368 28735 ft 420 kts 289°
2026-05-05 07:50 47.64795 17.23452 28935 ft 425 kts 291°
2026-05-05 07:50 47.66157 17.19538 29145 ft 429 kts 291°
2026-05-05 07:51 47.66997 17.15293 29279 ft 431 kts 277°
2026-05-05 07:51 47.67318 17.10861 29447 ft 434 kts 271°
2026-05-05 07:51 47.67497 17.06404 29714 ft 436 kts 271°
2026-05-05 07:51 47.67700 17.01882 29970 ft 439 kts 274°
2026-05-05 07:52 47.68118 16.97383 30182 ft 442 kts 278°
2026-05-05 07:52 47.68695 16.92881 30383 ft 445 kts 280°
2026-05-05 07:52 47.70063 16.83919 30797 ft 446 kts 281°
2026-05-05 07:53 47.70767 16.79454 31169 ft 443 kts 281°
2026-05-05 07:53 47.71441 16.74993 31482 ft 442 kts 280°
2026-05-05 07:53 47.72070 16.70605 31775 ft 441 kts 280°
2026-05-05 07:53 47.72691 16.66077 32067 ft 440 kts 279°
2026-05-05 07:54 47.73286 16.61624 32405 ft 439 kts 279°
2026-05-05 07:54 47.73875 16.57190 32760 ft 436 kts 279°
2026-05-05 07:54 47.74461 16.52782 33104 ft 434 kts 279°
2026-05-05 07:54 47.75050 16.48381 33403 ft 434 kts 279°
2026-05-05 07:55 47.75640 16.43987 33677 ft 434 kts 279°
2026-05-05 07:55 47.76232 16.39587 33972 ft 433 kts 279°
2026-05-05 07:55 47.76819 16.35210 34238 ft 432 kts 279°
2026-05-05 07:55 47.77400 16.30838 34522 ft 430 kts 279°
2026-05-05 07:56 47.77980 16.26479 34802 ft 429 kts 279°
2026-05-05 07:56 47.78551 16.22184 35029 ft 429 kts 279°
2026-05-05 07:56 47.79131 16.17829 35237 ft 430 kts 279°
2026-05-05 07:56 47.79718 16.13405 35419 ft 431 kts 279°
2026-05-05 07:57 47.80291 16.09034 35625 ft 431 kts 279°
2026-05-05 07:57 47.80856 16.04727 35819 ft 431 kts 279°
2026-05-05 07:57 47.82007 15.95933 35879 ft 430 kts 279°
2026-05-05 07:58 47.83130 15.87269 35878 ft 429 kts 279°
2026-05-05 07:58 47.84257 15.78543 35885 ft 428 kts 279°
2026-05-05 07:59 47.85354 15.69952 35879 ft 426 kts 279°
2026-05-05 07:59 47.86453 15.61276 35889 ft 427 kts 279°
2026-05-05 08:00 47.87549 15.52598 35890 ft 426 kts 278°
2026-05-05 08:00 47.88636 15.43978 35889 ft 425 kts 279°
2026-05-05 08:01 47.89691 15.35299 35886 ft 426 kts 275°
2026-05-05 08:01 47.90168 15.26513 35880 ft 426 kts 273°
2026-05-05 08:02 47.90628 15.17715 35878 ft 426 kts 273°
2026-05-05 08:02 47.91089 15.08912 35879 ft 426 kts 273°
2026-05-05 08:03 47.91538 15.00111 35881 ft 426 kts 273°
2026-05-05 08:03 47.91977 14.91306 35899 ft 426 kts 273°
2026-05-05 08:04 47.92408 14.82516 35898 ft 425 kts 272°
2026-05-05 08:04 47.92839 14.73740 35898 ft 424 kts 273°
2026-05-05 08:05 47.93266 14.64967 35895 ft 424 kts 272°
2026-05-05 08:05 47.93673 14.56192 35891 ft 424 kts 272°
2026-05-05 08:06 47.94075 14.47427 35893 ft 424 kts 272°
2026-05-05 08:06 47.94480 14.38664 35888 ft 423 kts 272°
2026-05-05 08:07 47.94875 14.29901 35885 ft 423 kts 272°
2026-05-05 08:07 47.95260 14.21212 35882 ft 423 kts 272°
2026-05-05 08:08 47.95640 14.12454 35880 ft 423 kts 272°
2026-05-05 08:08 47.96012 14.03697 35879 ft 423 kts 271°
2026-05-05 08:09 47.96381 13.94932 35870 ft 423 kts 271°
2026-05-05 08:09 47.96733 13.86242 35869 ft 424 kts 271°
2026-05-05 08:10 47.97082 13.77459 35870 ft 424 kts 271°
2026-05-05 08:10 47.97430 13.68683 35879 ft 424 kts 271°
2026-05-05 08:11 47.97772 13.59908 35878 ft 423 kts 271°
2026-05-05 08:11 47.98108 13.51140 35878 ft 423 kts 271°
2026-05-05 08:12 47.98439 13.42373 35874 ft 423 kts 271°
2026-05-05 08:12 47.98756 13.33605 35873 ft 423 kts 271°
2026-05-05 08:13 47.99067 13.24840 35881 ft 423 kts 270°
2026-05-05 08:13 47.99317 13.17553 35876 ft 423 kts 270°
2026-05-05 08:14 47.99611 13.08793 35874 ft 423 kts 270°
2026-05-05 08:14 47.99903 13.00017 35871 ft 423 kts 270°
2026-05-05 08:15 48.00187 12.91251 35870 ft 423 kts 269°
2026-05-05 08:15 47.99656 12.82567 35879 ft 420 kts 260°
2026-05-05 08:16 47.98874 12.73927 35878 ft 420 kts 260°
2026-05-05 08:16 47.98084 12.65299 35877 ft 420 kts 260°
2026-05-05 08:17 47.97291 12.56669 35874 ft 419 kts 261°
2026-05-05 08:17 47.96641 12.48020 35863 ft 420 kts 262°
2026-05-05 08:18 47.96065 12.39352 35862 ft 420 kts 262°
2026-05-05 08:18 47.95457 12.30679 35864 ft 420 kts 262°
2026-05-05 08:19 47.94817 12.22013 35867 ft 420 kts 262°
2026-05-05 08:19 47.94163 12.13350 35867 ft 420 kts 262°
2026-05-05 08:20 47.93502 12.04691 35867 ft 420 kts 262°
2026-05-05 08:20 47.92839 11.96040 35868 ft 420 kts 262°
2026-05-05 08:21 47.92170 11.87385 35885 ft 420 kts 261°
2026-05-05 08:21 47.91498 11.78742 35885 ft 420 kts 261°
2026-05-05 08:22 47.90819 11.70106 35888 ft 419 kts 261°
2026-05-05 08:22 47.90136 11.61482 35890 ft 419 kts 261°
2026-05-05 08:23 47.89442 11.52870 35891 ft 419 kts 261°
2026-05-05 08:23 47.88744 11.44267 35906 ft 418 kts 261°
2026-05-05 08:24 47.88042 11.35678 35909 ft 417 kts 261°
2026-05-05 08:24 47.87337 11.27096 35896 ft 417 kts 261°
2026-05-05 08:25 47.86628 11.18526 35896 ft 417 kts 261°
2026-05-05 08:25 47.85916 11.10016 35897 ft 417 kts 260°
2026-05-05 08:26 47.85186 11.01396 35918 ft 417 kts 260°
2026-05-05 08:26 47.84449 10.92835 35913 ft 417 kts 260°
2026-05-05 08:27 47.83711 10.84312 35910 ft 416 kts 260°
2026-05-05 08:27 47.82974 10.75769 35908 ft 416 kts 260°
2026-05-05 08:28 47.82225 10.67292 35903 ft 416 kts 259°
2026-05-05 08:28 47.81457 10.58709 35913 ft 416 kts 259°
2026-05-05 08:29 47.80700 10.50238 35891 ft 416 kts 259°
2026-05-05 08:30 47.79550 10.37424 35879 ft 417 kts 259°
2026-05-05 08:30 47.78774 10.28882 35882 ft 417 kts 259°
2026-05-05 08:31 47.77995 10.20340 35886 ft 417 kts 259°
2026-05-05 08:31 47.77206 10.11877 35895 ft 418 kts 258°
2026-05-05 08:32 47.76394 10.03312 35880 ft 419 kts 258°
2026-05-05 08:32 47.75585 9.94734 35876 ft 420 kts 258°
2026-05-05 08:33 47.74775 9.86139 35881 ft 420 kts 258°
2026-05-05 08:33 47.73949 9.77540 35888 ft 421 kts 258°
2026-05-05 08:34 47.73115 9.68938 35907 ft 421 kts 258°
2026-05-05 08:34 47.72194 9.60351 35890 ft 421 kts 256°
2026-05-05 08:35 47.71115 9.51807 35885 ft 421 kts 255°
2026-05-05 08:35 47.70021 9.43266 35885 ft 421 kts 256°
2026-05-05 08:36 47.68946 9.34719 35888 ft 422 kts 256°
2026-05-05 08:36 47.67876 9.26163 35912 ft 422 kts 256°
2026-05-05 08:37 47.66801 9.17609 35903 ft 422 kts 256°
2026-05-05 08:37 47.65711 9.09002 35890 ft 422 kts 255°
2026-05-05 08:38 47.64618 9.00436 35883 ft 423 kts 255°
2026-05-05 08:38 47.63525 8.91913 35888 ft 424 kts 255°
2026-05-05 08:39 47.62418 8.83333 35897 ft 424 kts 255°
2026-05-05 08:39 47.61326 8.74876 35913 ft 425 kts 255°
2026-05-05 08:40 47.60195 8.66222 35912 ft 425 kts 255°
2026-05-05 08:40 47.59058 8.57623 35913 ft 425 kts 255°
2026-05-05 08:41 47.57921 8.49026 35914 ft 426 kts 255°
2026-05-05 08:41 47.56770 8.40424 35898 ft 426 kts 255°
2026-05-05 08:42 47.55635 8.31948 35922 ft 426 kts 254°
2026-05-05 08:42 47.54492 8.23379 35913 ft 426 kts 254°
2026-05-05 08:43 47.53376 8.15118 35914 ft 426 kts 254°
2026-05-05 08:43 47.52216 8.06621 35910 ft 426 kts 254°
2026-05-05 08:44 47.51055 7.98161 35900 ft 426 kts 254°
2026-05-05 08:44 47.50036 7.90760 35900 ft 426 kts 254°
2026-05-05 08:45 47.48855 7.82209 35905 ft 427 kts 254°
2026-05-05 08:45 47.47926 7.75586 35900 ft 426 kts 254°
2026-05-05 08:46 47.46957 7.68696 35898 ft 426 kts 254°
2026-05-05 08:46 47.46336 7.61676 35898 ft 430 kts 260°
2026-05-05 08:47 47.45765 7.52895 35896 ft 429 kts 260°
2026-05-05 08:47 47.45182 7.44115 35929 ft 430 kts 259°
2026-05-05 08:48 47.44594 7.35330 35919 ft 430 kts 259°
2026-05-05 08:48 47.43996 7.26542 35914 ft 430 kts 259°
2026-05-05 08:49 47.43392 7.17757 35903 ft 430 kts 259°
2026-05-05 08:49 47.42782 7.08967 35900 ft 430 kts 259°
2026-05-05 08:50 47.42165 7.00173 35911 ft 431 kts 259°
2026-05-05 08:50 47.41541 6.91381 35904 ft 431 kts 259°
2026-05-05 08:51 47.40912 6.82589 35901 ft 431 kts 259°
2026-05-05 08:51 47.40273 6.73798 35899 ft 431 kts 259°
2026-05-05 08:52 47.39624 6.65015 35919 ft 431 kts 259°
2026-05-05 08:52 47.38974 6.56224 35895 ft 431 kts 259°
2026-05-05 08:53 47.38319 6.47435 35885 ft 431 kts 259°
2026-05-05 08:53 47.37645 6.38646 35882 ft 431 kts 259°
2026-05-05 08:54 47.36965 6.29848 35881 ft 431 kts 259°
2026-05-05 08:54 47.36292 6.21055 35899 ft 431 kts 259°
2026-05-05 08:55 47.35607 6.12265 35890 ft 431 kts 259°
2026-05-05 08:55 47.34917 6.03565 35888 ft 432 kts 259°
2026-05-05 08:56 47.34330 5.96256 35888 ft 432 kts 259°
2026-05-05 08:56 47.33598 5.87475 35875 ft 431 kts 258°
2026-05-05 08:57 47.32854 5.78677 35751 ft 439 kts 259°
2026-05-05 08:57 47.32482 5.74162 35500 ft 449 kts 259°
2026-05-05 08:57 47.32109 5.69569 35254 ft 454 kts 259°
2026-05-05 08:57 47.31734 5.64936 35009 ft 456 kts 259°
2026-05-05 08:58 47.31359 5.60290 34772 ft 457 kts 259°
2026-05-05 08:58 47.30983 5.55640 34532 ft 457 kts 259°
2026-05-05 08:58 47.30602 5.50998 34294 ft 456 kts 258°
2026-05-05 08:58 47.30218 5.46389 34062 ft 454 kts 258°
2026-05-05 08:59 47.29832 5.41787 33819 ft 452 kts 258°
2026-05-05 08:59 47.29444 5.37197 33566 ft 451 kts 258°
2026-05-05 08:59 47.29052 5.32612 33284 ft 450 kts 258°
2026-05-05 08:59 47.28661 5.28042 33018 ft 449 kts 258°
2026-05-05 09:00 47.28268 5.23490 32769 ft 448 kts 258°
2026-05-05 09:00 47.28022 5.18908 32477 ft 452 kts 265°
2026-05-05 09:00 47.28297 5.14278 32212 ft 457 kts 276°
2026-05-05 09:00 47.29140 5.09744 31950 ft 463 kts 287°
2026-05-05 09:01 47.30537 5.05451 31691 ft 468 kts 297°
2026-05-05 09:01 47.32443 5.01547 31436 ft 472 kts 308°
2026-05-05 09:01 47.34702 4.98014 31211 ft 473 kts 310°
2026-05-05 09:01 47.36973 4.94520 30591 ft 471 kts 311°
2026-05-05 09:02 47.39224 4.91054 29929 ft 468 kts 311°
2026-05-05 09:02 47.41472 4.87588 29203 ft 465 kts 311°
2026-05-05 09:02 47.43701 4.84148 28577 ft 461 kts 311°
2026-05-05 09:02 47.45903 4.80740 27944 ft 457 kts 311°
2026-05-05 09:03 47.48086 4.77351 27302 ft 453 kts 311°
2026-05-05 09:03 47.50243 4.73993 26683 ft 448 kts 311°
2026-05-05 09:03 47.52367 4.70687 26490 ft 440 kts 311°
2026-05-05 09:03 47.54461 4.67427 26194 ft 435 kts 310°
2026-05-05 09:04 47.56541 4.64184 25913 ft 432 kts 311°
2026-05-05 09:04 47.58605 4.60966 25634 ft 430 kts 311°
2026-05-05 09:04 47.60653 4.57774 25362 ft 425 kts 311°
2026-05-05 09:04 47.62679 4.54608 25077 ft 421 kts 311°
2026-05-05 09:05 47.64690 4.51457 24803 ft 419 kts 311°
2026-05-05 09:05 47.66684 4.48329 24529 ft 417 kts 311°
2026-05-05 09:05 47.68670 4.45207 24257 ft 415 kts 311°
2026-05-05 09:05 47.70642 4.42098 23996 ft 413 kts 311°
2026-05-05 09:06 47.72604 4.39006 23717 ft 410 kts 311°
2026-05-05 09:06 47.74555 4.35930 23453 ft 408 kts 311°
2026-05-05 09:06 47.76498 4.32866 23155 ft 406 kts 311°
2026-05-05 09:06 47.78430 4.29818 22895 ft 404 kts 311°
2026-05-05 09:07 47.80354 4.26778 22636 ft 403 kts 311°
2026-05-05 09:07 47.82267 4.23750 22374 ft 401 kts 311°
2026-05-05 09:07 47.84171 4.20732 22115 ft 399 kts 311°
2026-05-05 09:07 47.86042 4.17696 21845 ft 396 kts 308°
2026-05-05 09:08 47.87596 4.14335 21583 ft 392 kts 297°
2026-05-05 09:08 47.88717 4.10652 21329 ft 389 kts 287°
2026-05-05 09:08 47.89404 4.06777 21077 ft 386 kts 280°
2026-05-05 09:08 47.89970 4.02873 20829 ft 385 kts 280°
2026-05-05 09:09 47.90542 3.98980 20576 ft 384 kts 281°
2026-05-05 09:09 47.91113 3.95101 20326 ft 382 kts 281°
2026-05-05 09:09 47.91678 3.91236 20077 ft 381 kts 281°
2026-05-05 09:09 47.92239 3.87386 19816 ft 380 kts 281°
2026-05-05 09:10 47.92793 3.83542 19569 ft 379 kts 280°
2026-05-05 09:10 47.93343 3.79712 19326 ft 377 kts 280°
2026-05-05 09:10 47.93889 3.75908 19082 ft 376 kts 280°
2026-05-05 09:10 47.94435 3.72104 18830 ft 375 kts 280°
2026-05-05 09:11 47.94975 3.68317 18586 ft 373 kts 280°
2026-05-05 09:11 47.95512 3.64539 18340 ft 372 kts 280°
2026-05-05 09:11 47.96091 3.60774 18091 ft 374 kts 285°
2026-05-05 09:11 47.97076 3.57182 17827 ft 375 kts 297°
2026-05-05 09:12 47.98517 3.53931 17269 ft 378 kts 309°
2026-05-05 09:12 48.00325 3.51105 16779 ft 375 kts 315°
2026-05-05 09:12 48.02160 3.48344 16255 ft 373 kts 314°
2026-05-05 09:12 48.03973 3.45584 15677 ft 374 kts 314°
2026-05-05 09:13 48.05776 3.42820 15327 ft 368 kts 314°
2026-05-05 09:13 48.07556 3.40083 14877 ft 366 kts 314°
2026-05-05 09:13 48.09323 3.37367 14448 ft 363 kts 315°
2026-05-05 09:13 48.11076 3.34679 13960 ft 357 kts 315°
2026-05-05 09:14 48.12800 3.32038 13102 ft 353 kts 315°
2026-05-05 09:14 48.14511 3.29416 12379 ft 352 kts 315°
2026-05-05 09:14 48.16198 3.26820 12204 ft 343 kts 315°
2026-05-05 09:14 48.17831 3.24299 12058 ft 331 kts 315°
2026-05-05 09:15 48.19405 3.21864 11926 ft 320 kts 315°
2026-05-05 09:15 48.20934 3.19505 11701 ft 312 kts 316°
2026-05-05 09:15 48.22442 3.17184 11356 ft 310 kts 316°
2026-05-05 09:15 48.23936 3.14882 11031 ft 306 kts 316°
2026-05-05 09:16 48.25417 3.12601 10708 ft 303 kts 316°
2026-05-05 09:16 48.26881 3.10345 10520 ft 301 kts 316°
2026-05-05 09:16 48.28338 3.08101 10230 ft 299 kts 316°
2026-05-05 09:16 48.29649 3.05684 9923 ft 299 kts 303°
2026-05-05 09:17 48.30596 3.02928 9653 ft 296 kts 297°
2026-05-05 09:17 48.31476 3.00171 9375 ft 290 kts 297°
2026-05-05 09:17 48.32341 2.97475 9137 ft 283 kts 297°
2026-05-05 09:17 48.33191 2.94835 8877 ft 277 kts 297°
2026-05-05 09:18 48.34020 2.92252 8632 ft 271 kts 297°
2026-05-05 09:18 48.34829 2.89730 8390 ft 265 kts 297°
2026-05-05 09:18 48.35604 2.87302 8162 ft 258 kts 297°
2026-05-05 09:18 48.36370 2.84901 7939 ft 251 kts 297°
2026-05-05 09:19 48.37115 2.82567 7725 ft 244 kts 297°
2026-05-05 09:19 48.37842 2.80294 7503 ft 239 kts 297°
2026-05-05 09:19 48.38554 2.78064 7293 ft 234 kts 297°
2026-05-05 09:19 48.39248 2.75886 7081 ft 228 kts 297°
2026-05-05 09:20 48.39933 2.73729 6877 ft 222 kts 297°
2026-05-05 09:20 48.40592 2.71651 6686 ft 218 kts 298°
2026-05-05 09:20 48.41244 2.69598 6497 ft 219 kts 298°
2026-05-05 09:20 48.41897 2.67547 6303 ft 222 kts 297°
2026-05-05 09:21 48.42568 2.65439 6099 ft 226 kts 296°
2026-05-05 09:21 48.43254 2.63281 5895 ft 231 kts 296°
2026-05-05 09:21 48.43956 2.61070 5687 ft 238 kts 296°
2026-05-05 09:21 48.44681 2.58790 5465 ft 245 kts 297°
2026-05-05 09:22 48.45428 2.56438 5245 ft 254 kts 297°
2026-05-05 09:22 48.46196 2.54013 5074 ft 257 kts 297°
2026-05-05 09:22 48.46961 2.51587 4938 ft 256 kts 296°
2026-05-05 09:22 48.47725 2.49166 4703 ft 255 kts 297°
2026-05-05 09:23 48.48485 2.46754 4421 ft 255 kts 297°
2026-05-05 09:23 48.49239 2.44352 4216 ft 251 kts 297°
2026-05-05 09:23 48.49964 2.42028 4093 ft 238 kts 297°
2026-05-05 09:23 48.50650 2.39823 3997 ft 226 kts 298°
2026-05-05 09:24 48.51301 2.37733 3899 ft 215 kts 298°
2026-05-05 09:24 48.51929 2.35727 3833 ft 209 kts 298°
2026-05-05 09:24 48.52551 2.33759 3765 ft 206 kts 299°
2026-05-05 09:24 48.53345 2.32052 3653 ft 193 kts 320°
2026-05-05 09:25 48.53924 2.31322 3598 ft 186 kts 330°
2026-05-05 09:27 48.54860 2.30570 3303 ft 180 kts 345°
2026-05-05 09:27 48.56028 2.30227 3241 ft 162 kts
2026-05-05 09:27 48.57084 2.30365 3157 ft 146 kts 18°
2026-05-05 09:28 48.58012 2.30801 3097 ft 137 kts 23°
2026-05-05 09:28 48.58910 2.31248 2960 ft 135 kts 22°
2026-05-05 09:28 48.59805 2.31695 2798 ft 136 kts 22°
2026-05-05 09:28 48.60699 2.32141 2622 ft 135 kts 22°
2026-05-05 09:29 48.61582 2.32581 2455 ft 132 kts 22°
2026-05-05 09:29 48.62455 2.33017 2279 ft 132 kts 22°
2026-05-05 09:29 48.63326 2.33452 2093 ft 132 kts 22°
2026-05-05 09:29 48.64188 2.33883 1910 ft 130 kts 22°
2026-05-05 09:30 48.65045 2.34311 1741 ft 129 kts 21°
2026-05-05 09:30 48.65898 2.34737 1546 ft 129 kts 21°
2026-05-05 09:30 48.66749 2.35163 1372 ft 129 kts 21°
2026-05-05 09:30 48.67597 2.35587 1189 ft 129 kts 20°
2026-05-05 09:31 48.68452 2.36015 1014 ft 129 kts 20°
2026-05-05 09:31 48.69309 2.36432 831 ft 128 kts 19°
2026-05-05 09:31 48.70154 2.36855 702 ft 127 kts 20°
2026-05-05 09:31 48.71004 2.37302 480 ft 130 kts 21°
2026-05-05 09:32 48.71849 2.37717 325 ft 126 kts 20°
2026-05-05 09:32 48.72599 2.38097 300 ft 91 kts 19°
2026-05-05 09:32 48.73038 2.38317 299 ft 40 kts 19°
2026-05-05 09:32 48.73248 2.38419 300 ft 20 kts 17°
2026-05-05 09:33 48.73353 2.38416 302 ft 15 kts 309°
2026-05-05 09:33 48.73348 2.38302 301 ft 13 kts 253°
2026-05-05 09:33 48.73325 2.38191 297 ft 11 kts 252°
2026-05-05 09:33 48.73302 2.38082 298 ft 15 kts 252°
2026-05-05 09:34 48.73246 2.37987 298 ft 11 kts 205°
2026-05-05 09:34 48.73156 2.37941 299 ft 19 kts 198°
2026-05-05 09:34 48.73053 2.37891 298 ft 14 kts 197°
2026-05-05 09:34 48.72965 2.37847 297 ft 12 kts 198°
2026-05-05 09:35 48.72888 2.37808 298 ft 11 kts 198°
2026-05-05 09:35 48.72792 2.37679 298 ft 9 kts 255°
2026-05-05 09:35 48.72776 2.37592 301 ft 8 kts 255°
2026-05-05 09:36 48.72762 2.37510 300 ft 8 kts 255°
2026-05-05 09:36 48.72748 2.37436 298 ft 7 kts 255°
2026-05-05 09:36 48.72736 2.37370 296 ft 6 kts 253°
2026-05-05 09:36 48.72724 2.37312 298 ft 5 kts 254°
2026-05-05 09:37 48.72715 2.37261 299 ft 5 kts 254°
2026-05-05 09:37 48.72707 2.37218 298 ft 4 kts 254°
2026-05-05 09:37 48.72701 2.37188 298 ft 7 kts 254°
2026-05-05 09:37 48.72681 2.37082 296 ft 7 kts 254°
2026-05-05 09:38 48.72673 2.37035 298 ft 7 kts 254°
2026-05-05 09:38 48.72660 2.36969 301 ft 6 kts 254°
2026-05-05 09:38 48.72649 2.36907 296 ft 8 kts 253°
2026-05-05 09:38 48.72630 2.36822 300 ft 8 kts 251°
2026-05-05 09:39 48.72612 2.36744 298 ft 8 kts 250°
2026-05-05 09:39 48.72595 2.36673 299 ft 7 kts 249°
2026-05-05 09:39 48.72576 2.36611 297 ft 6 kts 252°
2026-05-05 09:39 48.72566 2.36555 299 ft 5 kts 253°
2026-05-05 09:40 48.72557 2.36507 298 ft 4 kts 254°
2026-05-05 09:40 48.72549 2.36467 296 ft 4 kts 255°
2026-05-05 09:40 48.72539 2.36408 296 ft 10 kts 255°
2026-05-05 09:40 48.72527 2.36336 299 ft 4 kts 255°
2026-05-05 09:41 48.72512 2.36254 298 ft 5 kts 255°
2026-05-05 09:41 48.72505 2.36202 297 ft 4 kts 269°
2026-05-05 09:41 48.72522 2.36182 298 ft 3 kts 343°
2026-05-05 09:41 48.72561 2.36167 297 ft 5 kts 345°
2026-05-05 09:42 48.72583 2.36157 297 ft 0 kts 345°
2026-05-05 09:42 48.72590 2.36154 299 ft 2 kts 345°
2026-05-05 09:42 48.72592 2.36153 300 ft 0 kts 345°